Regional Weather Roundup
Issued by NWS

Home | Current Version | Previous Version | Text Only | Print | Product List | Glossary On
Versions: 1 2 3 4 5 6 7 8 9 10 11 12 13 14 15 16 17 18 19 20 21 22 23 24 25 26 27 28 29 30 31 32 33 34 35 36 37 38 39 40 41 42 43 44 45 46 47 48 49 50
000
ASHW40 PHFO 220844
RWRHI

WEATHER ROUNDUP FOR HAWAII
NATIONAL WEATHER SERVICE HONOLULU HI
1000 PM HST SAT JAN 21 2017

THIS IS AN AUTOMATED REPORT THAT HAS NOT BEEN QUALITY CONTROLLED.

NOTE..."FAIR" INDICATES FEW OR NO CLOUDS BELOW 12,000 FEET WITH NO
SIGNIFICANT WEATHER AND/OR OBSTRUCTIONS TO VISIBILITY.

* - THESE SITES REPORT LIMITED FIELDS

HIZ001>004-220900-
KAUAI-NIIHAU-

CITY           SKY/WX    TMP DP  RH WIND       PRES   REMARKS
LIHUE APT      CLOUDY    72  58  61 NE30G43   30.23S
PORT ALLEN*      N/A     72 N/A N/A NE29G46     N/A
POIPU*           N/A     72 N/A N/A NE18G35     N/A
PRINCEVILLE*     N/A     70 N/A N/A E14G24      N/A
KOKOLE POINT*  NOT AVBL
MOLOAA DAIRY*    N/A     70  55  60 E7G23       N/A
WAIMEA HTS*      N/A     68  46  45 W3G18       N/A
PUU OPAE*      NOT AVBL
PUU LUA*       NOT AVBL
MAKAHA RIDGE*    N/A     61  50  67 S2          N/A
$$

HIZ005>011-220900-
OAHU-

CITY           SKY/WX    TMP DP  RH WIND       PRES   REMARKS
HONOLULU       PTCLDY    72  52  49 E22G39    30.15F
KALAELOA         N/A     73  55  53 NE17G28   30.15S
KANEOHE MCB    CLOUDY    73  61  64 NE28G37   30.18F
WHEELER FIELD  FAIR      67  54  63 VRB6      30.17
BELLOWS*         N/A    N/A N/A N/A NE32G41     N/A
KAHUKU*          N/A    N/A N/A N/A NE15G30     N/A
WHEELER*         N/A    N/A N/A N/A N5G17       N/A
WAIANAE HARBOR   N/A    N/A N/A N/A NE14G37     N/A
DILLINGHAM*      N/A     73  55  53 MISG        N/A
KAHUKU TRN*      N/A     66  54  63 W21G38      N/A
KAWAILOA*        N/A     64  52  63 E25G47      N/A
KII*             N/A     72  59  64 NE26G39     N/A
MAKUA RANGE*     N/A     70  54  56 W26G52      N/A
OAHU FOREST NW   N/A     63  54  72 E48G79      N/A
SCHOFIELD BRK*   N/A     64  52  63 MISG        N/A
SCHOFIELD S*   NOT AVBL
WAIANAE VLY*     N/A     72  59  64 N16G45      N/A
KUAOKALA*        N/A     66   1   7 NE41G71     N/A
HONOULIUULI*   NOT AVBL
MOKUOLOE IS*   NOT AVBL
PALEHUA*         N/A     61  52  72 NE29G49     N/A
WAIAWA PHB*    NOT AVBL
$$

HIZ012>013-220900-
MOLOKAI-

CITY           SKY/WX    TMP DP  RH WIND       PRES   REMARKS
MOLOKAI AIRPT  CLOUDY    69  56  62 NE24G39   30.15S
KALAUPAPA      NOT AVBL
MAKAPULAPAI*     N/A     72  59  64 E31G43      N/A
MOLOKAI 1*       N/A     57  54  88 N20G41      N/A
PUU ALII*        N/A     51  51 100 N5G22       N/A
$$

HIZ016-220900-
KAHOOLAWE-

CITY           SKY/WX    TMP DP  RH WIND       PRES   REMARKS
KAHOOLAWE*     NOT AVBL
HAKIOAWA*        N/A     67  60  79 MISG        N/A
HONOKANAIA*      N/A     72  60  67 N15G37    30.04R
KANELOA*         N/A     68  61  77 NE13G32   30.16R
KEALIALALO*    NOT AVBL
LUA MAKIKA*    NOT AVBL
$$

HIZ014>015-220900-
LANAI-

CITY           SKY/WX    TMP DP  RH WIND       PRES   REMARKS
LANAI CITY     FAIR      65  56  72 NE44G61   30.09S
LANAI 1*       NOT AVBL
$$

HIZ017>028-220900-
MAUI-

CITY           SKY/WX    TMP DP  RH WIND       PRES   REMARKS
KAHULUI        CLOUDY    71  59  65 NE29G39   30.17R
KAPALUA-W MAUI NOT AVBL
HANA AIRPORT   CLOUDY    72  61  68 NE17      30.25S HAZE
HANA*            N/A     72 N/A N/A NE17G28     N/A
HALEAKALA SUMM   N/A     36  36 100 NE26G43     N/A  WCI  23
MAALAEA BAY*     N/A     70 N/A N/A N28G47      N/A
HALEAKALA*     NOT AVBL
KAUPO GAP*       N/A     68  63  83 N24G45      N/A
KULA 1*          N/A     48  37  66 E5          N/A
$$

HIZ023>026-220900-
BIG ISLAND OF HAWAII COAST AND LOWER SLOPES-

CITY           SKY/WX    TMP DP  RH WIND       PRES   REMARKS
KAILUA KONA    PTCLDY    75  66  73 SE6       30.04S
HILO           CLOUDY    72  66  81 NE15G23   30.18S
HONOKAA*         N/A     64 N/A N/A VRB1        N/A
KAWAIHAE MWT*  NOT AVBL
KAWAIHAE*        N/A     77 N/A N/A NE32G44   29.96S
SOUTH POINT*     N/A     70 N/A N/A VRB25G39    N/A
UPOLU AIRPORT* NOT AVBL
KAMUELA*       PTSUNNY   61  59  94 NE35      30.16R
HAKALAU*         N/A     48  48 100 NW2G17      N/A
KALOKO-HONOKO*   N/A     73  66  78 E3        30.03S
PALI 2*          N/A     63  57  82 S28G45      N/A
KEALAKOMO*       N/A     72  63  73 N30G41      N/A
KAUPULEHU*       N/A     72  57  60 E12G35      N/A
KAPAPALA*      NOT AVBL
LOWER KAHUKU*    N/A     59  55  88 N3G12       N/A
PUHE CS*         N/A     79  55  44 NE17G46     N/A
PUHO CS*         N/A     71  62  72 E2          N/A
PTA KEAMUKU*     N/A     59  55  88 CALM        N/A
WAIKOLOA*        N/A     70  59  68 E28G55      N/A
$$

HIZ027>028-220900-
BIG ISLAND OF HAWAII INTERIOR AND SUMMMITS-

CITY           SKY/WX    TMP DP  RH WIND       PRES   REMARKS
BRADSHAW FIELD CLEAR     46  42  84 SE5       30.34R
MK VISITOR CEN   N/A     45  34  65 NE21        N/A
MAUNA KEA*       N/A     32  10  40 CALM        N/A
MAUNA LOA*       N/A     39   1  20 MISG        N/A
MAUNA LOA 1*   NOT AVBL
PTA KIPUKA*      N/A    N/A N/A N/A E26G41      N/A
PTA RANGE 17*    N/A     54  45  71 SE24G37     N/A
PTA WEST*        N/A     61  46  59 E26G40      N/A
NENE CABIN*      N/A     48  41  76 NE3G10      N/A
AHUMOA*          N/A     48  41  76 SE6         N/A
PTA PORTABLE*  NOT AVBL
PUU MALI*        N/A     48 N/A N/A E20G29      N/A
$$

HIC003-220900-
NORTHWEST ISLANDS-

CITY           SKY/WX    TMP DP  RH WIND       PRES   REMARKS
MIDWAY ISLAND  CLOUDY    72  63  73 S24G30    30.13F
MIDWAY NOS*      N/A     72 N/A N/A MISG      30.13S
FRENCH FRIGATE NOT AVBL
$$

PHZ110>124-180-220900-
BUOY REPORTS

STATION/POSITION TIME  TEMP    WIND        PRES    WAVE   SWELL
                       AIR SEA DIR/SP/G            HT/PER HT/DIR
                 (UTC) (F)     (DEG/KT/KT) (MB)    (FT/S) (FT/D)
BUOY 51001       0820   70 75   70/ 23/ 29 1025.7
BUOY 51101       0750   70 75   60/ 25/ 29 1025.5F  14/ 8
BUOY 51100       NOT AVBL
BUOY 51002       0820   77 77   70/ 23/ 27 1017.0
BUOY 51003       0750   75 78   60/ 25/ 35 1018.0R  16/ 9
BUOY 51004       0750      77   50/ 23/ 31 1017.4R  10/14   5/310
BARBERS PT BUOY  NOT AVBL
WAIMEA BAY BUOY  0802      75                N/A    14/11   8/350
KAILUA BAY BUOY  0804      76                N/A    16/ 9   7/360
LANAI BUOY       0815      77                N/A     5/12   3/300
BARBERS PT 2     0809      77                N/A     7/11   5/300
PAUWELA MAUI     0809      75                N/A    16/10   8/340
HILO             0812      76                N/A    13/ 9   5/330
KANEOHE BAY BUOY 0806      75                N/A    15/10   7/340
HANALEI KAUAI    0822      76                N/A    16/11   8/ 10
KAHULUI HARBOR   0806   72 75   50/ 21/ 28 1022.3
HONOLULU HARBOR  0806   72 76   90/  9/ 34 1021.2
KILO NALU        NOT AVBL
HILO HARBOR      0806   72 74   30/ 24/ 29 1021.5
MOKUOLOE         0736   72 75   70/ 19/ 25 1023.2R
NAWILIWILI       0806   71 77   50/ 21/ 25 1023.2
WHOTS BUOY       NOT AVBL
BUOY 51028       NOT AVBL
$$

......................KEY........................................
  SKY/WX - SKY CONDITIONS/PRESENT WEATHER
  TMP    - TEMPERATURE IN FAHRENHEIT
  DWPT   - DEWPOINT IN FAHRENHEIT
  RH     - RELATIVE HUMIDITY IN PERCENT
  WIND   - DIRECTION AND SPEED /MPH FOR ISLANDS...KTS FOR BUOYS/
  PRES   - MEAN SEA LEVEL PRESSURE IN INCHES OF HG
  VSB    - VISIBILITY IN MILES
  HX     - HEAT INDEX
  WCI    - WIND CHILL INDEX
  VRB    - VARIABLE WIND DIRECTION
  N/A    - NOT AVAILABLE




USA.gov is the U.S. government's official web portal to all federal, state and local government web resources and services.